Terug naar catalogus

THOR ABLESTAR DEB

ActiefLEO
NORAD 409·DEBRIS·🇺🇸 United States

Gelanceerd Jun 29, 1961 vanaf Cape Canaveral Space Force Station

Loading…

Volgende Passages (komende 24 uur)

TLE

VersSource: Space-Track

Epoch: Sep 7, 2026, 01:38 UTC

1 00409U 61015EJ  26250.06840450  .00000444  00000-0  20477-3 0  9993
2 00409  66.7123 135.8737 0057168 120.4312 240.2451 14.29106210353009

Volg THOR ABLESTAR DEB in realtime met AllMySat

Download on the App Store